Torna al catalogo

CZ-4C R/B

AttivoLEO
NORAD 40112·ROCKET BODY·🇨🇳 China

Lanciato Aug 9, 2014 da Jiuquan Satellite Launch Center

Loading…

Prossimi Passaggi (prossime 24 ore)

TLE

AggiornatoSource: Space-Track

Epoca: Sep 14, 2026, 15:28 UTC

1 40112U 14047D   26257.64508400 -.00000048  00000-0  26078-4 0  9993
2 40112  63.4105  21.6218 0569397   0.6666 359.5008 13.70437716605068

Traccia CZ-4C R/B in tempo reale con AllMySat

Download on the App Store